Location: Newark
(34.9500°N, 139.9667°E)
Time: 07:08:59
(UTC+00:00)

Altair - Pass Details

Date: 13 December 2019
Orbit: 1502 x 1682 km, 47.2° (Epoch: 18 January)

Event Time Altitude Azimuth Distance (km) Brightness Sun altitude
Rises 09:39:59 0° 218° (SW) 4,854 10.8 -26.0°
Reaches altitude 10° 09:43:11 10° 215° (SW) 3,847 10.1 -26.7°
Maximum altitude 09:52:46 62° 137° (SE) 1,747 7.5 -28.6°
Enters shadow 09:54:36 54° 95° (E) 1,860 7.5 -29.0°
